Temperature
18 17 17 17 17 17 16 16 16 16 16 16 16 16 16 15 15 15 15 16 16 16 16 15 15 15 15 15 15 15 15 15 16 15 15 15 14 14 14 14 13 13 13
20 18 17 17 17 17 16 16 16 16 16 16 16 16 16 16 15 15 16 16 16 16 16 15 15 15 15 15 15 15 15 15 15 15 15 15 14 14 14 14 14 13 13
20 18 17 17 17 17 16 16 16 16 16 17 17 17 16 16 16 15 16 16 16 16 16 16 15 15 15 15 15 15 15 15 15 15 15 15 14 14 14 14 13 13 13
19 18 18 17 17 17 16 16 16 17 17 17 17 17 16 16 16 16 16 16 16 16 16 16 16 16 15 15 15 15 15 15 15 15 15 14 14 14 14 14 14 14 14
19 18 18 17 17 17 17 16 17 17 17 17 17 17 17 16 16 16 16 16 16 16 16 16 16 16 15 15 15 15 15 14 14 14 14 14 14 14 14 14 14 14 14
19 18 17 17 17 17 17 17 17 17 17 18 17 17 17 16 16 16 16 16 16 16 16 16 16 16 15 15 15 15 14 14 14 14 14 14 14 14 14 14 14 14 14
18 18 17 17 17 17 17 17 17 17 18 18 17 17 17 16 16 16 16 16 16 16 16 16 16 15 15 15 15 15 14 14 14 14 14 14 14 14 14 14 14 14 14
18 17 16 16 16 17 17 17 17 18 18 18 17 17 17 16 16 16 16 16 16 16 16 16 15 15 15 15 15 15 14 14 14 14 14 14 13 14 14 14 14 14 14
17 17 16 16 16 16 17 17 17 18 18 18 17 17 17 17 16 16 16 16 16 16 16 16 15 15 15 15 15 15 14 14 14 14 14 13 13 13 13 14 14 14 14
16 16 16 16 16 16 16 17 17 17 18 18 17 17 17 17 17 17 16 16 16 16 16 16 15 15 15 15 15 15 15 14 14 14 13 13 13 13 13 13 14 14 14
15 15 15 15 15 16 16 16 17 17 17 17 17 17 17 17 17 17 17 17 16 16 16 16 16 15 15 15 15 15 15 14 14 14 13 13 13 13 13 13 13 14 14
15 15 15 15 15 15 16 16 16 17 17 17 17 17 17 17 17 17 17 17 17 16 16 16 16 16 15 15 15 15 14 14 14 14 13 13 13 13 13 13 13 13 13
16 16 15 15 15 15 16 16 16 16 17 17 17 17 17 17 17 17 17 17 16 16 16 16 16 15 15 15 15 15 14 14 14 14 13 13 13 13 13 13 13 13 13
16 16 16 15 15 15 15 16 16 16 16 16 17 17 17 17 17 17 16 16 16 16 16 15 15 15 15 15 15 14 14 14 14 13 13 13 13 12 12 12 12 12 12
16 16 16 16 15 15 15 15 15 15 16 16 16 16 16 16 16 16 16 16 15 15 15 15 15 15 15 14 14 14 14 14 14 13 13 13 12 12 12 12 12 12 12
16 16 16 15 15 15 15 15 15 15 15 15 15 15 15 15 15 15 15 15 15 15 14 14 14 14 14 14 14 14 14 13 13 13 13 13 12 12 12 12 12 12 12
16 16 16 15 15 15 15 15 15 15 15 15 15 15 15 15 15 15 15 15 15 14 14 14 14 14 13 13 13 13 13 13 13 13 13 12 12 12 12 12 12 11 11
16 16 16 15 15 15 15 15 15 15 15 15 15 15 15 15 15 15 15 15 14 14 14 14 13 13 13 13 13 13 12 12 12 12 12 12 12 12 12 12 11 11 11
16 16 16 15 15 15 15 15 15 14 14 14 14 14 14 14 14 14 14 14 14 14 14 13 13 13 13 13 12 12 12 12 12 12 12 12 12 12 12 12 11 11 11
16 16 16 16 15 15 15 15 14 14 14 14 14 14 14 14 14 14 14 14 14 13 13 13 13 13 13 13 12 12 12 12 12 12 12 12 12 12 12 12 11 11 11
16 16 16 16 16 15 15 15 15 15 15 14 14 14 14 14 14 14 14 14 13 13 13 13 13 13 12 12 12 12 12 12 12 12 12 12 12 12 12 12 11 11 11
16 16 16 16 16 15 15 15 15 15 15 14 14 14 14 14 14 14 14 13 13 13 13 13 13 12 12 12 11 11 11 11 12 12 12 12 12 12 11 11 11 11 10
16 16 16 15 15 15 15 15 15 14 14 14 14 14 14 14 14 14 13 13 13 13 13 13 12 12 12 12 11 11 11 11 11 11 11 11 11 11 11 11 11 10 10
15 15 15 15 15 15 15 14 14 14 14 14 14 14 14 13 13 13 13 13 13 13 12 12 12 12 11 11 11 11 10 10 10 10 10 10 10 10 10 10 10 10 10
14 14 14 14 14 14 14 14 13 13 13 13 13 13 13 13 13 13 12 12 12 12 12 12 12 11 11 11 11 10 10 10 10 9 9 9 9 9 9 9 9 9 9
13 13 13 13 13 13 13 13 12 12 12 12 12 12 12 12 12 12 11 11 11 11 11 11 11 11 10 10 10 10 10 9 9 9 9 9 9 9 8 8 8 8 8
Wind_Speed
6 11 18 16 16 15 14 13 13 13 13 12 12 11 11 11 12 12 13 13 13 14 14 15 16 16 17 18 18 17 16 15 15 14 13 13 11 11 11 10 10 10 10
9 15 19 17 16 15 14 13 13 13 12 11 11 11 11 11 12 12 13 13 13 13 14 14 15 15 16 16 16 16 15 14 13 12 12 11 10 10 9 8 7 7 8
10 16 19 17 16 15 15 14 14 12 11 11 10 11 11 12 12 12 12 12 12 13 13 14 14 14 14 14 14 13 12 11 10 10 9 8 7 9 8 7 7 8 7
13 16 17 18 17 16 16 15 13 12 11 10 10 10 11 12 12 12 12 12 12 13 13 13 13 13 13 12 11 10 9 8 8 7 7 6 5 7 8 8 8 7 7
11 15 17 18 18 17 16 14 13 11 10 10 10 10 11 12 12 12 12 12 12 12 12 12 12 12 11 11 10 9 8 8 8 7 7 6 6 7 9 9 9 8 8
9 15 18 19 18 18 16 15 13 11 10 10 9 10 11 12 12 12 12 11 11 10 11 11 10 10 10 10 9 8 8 9 8 7 7 7 6 7 9 9 8 9 9
9 14 18 19 18 18 16 14 13 11 10 9 9 10 11 12 12 12 11 10 9 9 9 9 9 9 9 9 9 8 8 8 8 7 6 5 5 7 8 8 8 7 7
8 12 17 19 19 17 16 14 12 11 10 9 9 10 10 11 11 10 10 9 8 7 7 6 6 7 7 7 8 8 7 7 7 6 5 4 5 6 6 7 6 6 6
9 10 13 16 17 17 16 14 12 10 9 9 9 9 10 10 10 9 9 8 6 5 4 4 4 4 5 6 6 6 6 5 5 4 3 2 3 4 5 4 5 5 5
6 7 9 12 14 15 15 14 12 10 9 9 9 10 10 9 9 8 7 6 5 4 3 2 2 2 3 4 4 4 4 4 3 2 1 1 1 2 3 3 3 3 4
7 6 7 9 11 12 13 12 11 10 9 8 8 9 8 7 6 6 6 5 5 4 3 2 2 0 1 2 3 2 3 2 3 3 3 3 2 1 1 1 1 2 2
9 7 6 7 9 10 10 10 9 9 8 8 8 8 7 6 5 4 4 5 4 4 4 4 3 2 1 1 1 1 1 3 4 5 6 6 5 4 3 2 1 1 1
9 8 7 6 8 9 8 8 8 8 8 8 8 9 7 6 5 4 4 4 5 5 5 4 4 4 3 2 2 2 3 4 6 7 9 9 9 7 6 5 4 3 2
9 8 7 7 7 8 8 8 8 7 8 8 9 9 8 6 5 5 5 6 6 6 6 6 5 6 5 5 4 4 5 6 7 9 10 11 11 10 9 7 6 6 5
9 8 8 7 7 7 7 6 7 8 9 10 10 11 11 8 6 7 7 7 8 8 7 7 7 7 7 7 7 6 7 8 9 10 12 13 14 13 12 10 9 9 8
8 8 7 7 7 8 6 6 7 9 9 9 10 12 13 12 9 7 7 8 9 11 11 9 8 7 6 7 7 8 9 10 11 12 13 14 15 16 15 14 13 12 11
7 6 6 7 6 6 6 7 7 9 9 9 10 13 14 13 12 10 7 6 10 12 11 9 8 7 5 6 6 8 9 11 12 13 14 15 16 17 18 18 16 15 14
5 5 5 6 6 6 5 6 7 8 9 9 10 11 13 14 14 11 7 7 11 11 9 5 4 5 6 6 6 6 7 8 11 13 14 15 16 16 19 20 20 18 17
5 5 5 4 5 5 5 5 5 6 6 7 8 8 10 12 13 12 8 9 10 8 7 6 6 5 6 7 7 7 6 6 8 10 11 14 16 17 18 20 22 22 20
3 3 3 3 2 3 2 2 2 2 2 4 5 6 7 8 10 10 8 9 9 5 6 6 7 6 6 6 6 6 6 7 6 6 9 12 14 17 18 19 19 20 22
3 4 3 3 2 2 2 2 2 2 2 2 3 5 5 6 6 7 5 5 6 6 7 7 6 7 6 4 3 5 5 7 8 7 6 7 9 14 16 17 17 17 17
4 4 4 3 3 2 1 1 1 1 1 1 0 1 3 4 4 5 4 4 4 5 6 7 6 4 4 4 4 3 4 4 5 7 6 7 7 8 10 14 15 16 17
4 4 4 4 4 3 2 2 2 2 2 2 2 2 4 4 4 3 4 4 3 4 5 6 6 7 6 4 6 5 4 4 3 3 4 5 5 5 5 9 12 15 16
4 4 5 5 5 4 4 3 2 1 1 1 2 2 4 6 6 5 5 4 3 3 4 5 5 5 6 6 4 6 7 4 4 4 2 2 3 4 5 4 7 11 14
5 5 5 6 6 5 5 4 3 2 0 1 2 3 4 4 6 8 7 5 3 3 3 4 4 4 4 5 5 4 5 5 6 6 6 4 2 3 3 4 4 7 11
5 5 5 6 6 5 6 5 4 3 2 2 3 3 4 3 4 7 8 6 5 3 3 4 3 4 4 5 4 4 4 4 4 6 7 5 4 3 2 2 2 4 6
Wind_Direction
175 167 158 155 150 144 137 132 126 120 114 109 105 103 104 102 100 97 91 87 82 80 80 80 82 86 88 89 88 87 86 85 83 78 73 72 78 80 78 72 67 66 69
154 160 155 155 150 146 141 134 127 121 116 113 111 111 111 109 106 103 96 90 86 86 85 85 87 90 91 91 90 88 87 87 85 79 70 65 71 79 82 78 74 73 72
145 154 152 153 149 145 139 132 128 124 120 118 117 117 118 115 111 107 101 94 91 89 89 89 90 92 92 92 91 89 87 87 84 76 67 59 67 80 82 78 74 72 71
147 150 151 151 147 142 137 134 130 127 124 122 122 124 124 121 115 111 105 99 96 93 92 92 93 93 93 92 90 89 88 87 83 73 62 50 55 77 79 77 72 69 64
142 146 150 148 145 141 138 136 132 129 127 126 127 129 130 127 121 116 109 105 101 98 97 96 95 93 90 89 88 86 88 91 86 77 66 57 55 71 73 70 66 65 63
135 144 150 146 144 141 141 140 136 133 131 131 134 134 133 133 126 120 114 111 108 105 103 100 96 92 86 83 83 86 92 94 92 85 74 63 60 73 74 69 65 64 61
138 145 150 147 146 145 144 143 140 137 137 138 138 138 134 132 127 123 121 119 115 111 109 105 100 93 85 81 79 86 95 98 97 95 82 68 69 76 74 68 63 60 54
139 145 151 150 148 147 147 146 145 143 143 143 142 138 133 132 130 131 130 128 124 120 116 110 102 93 85 80 80 88 97 100 99 94 87 76 83 80 77 70 62 57 51
136 142 149 151 150 150 149 150 151 150 147 145 145 139 134 134 138 143 142 141 140 136 128 117 103 90 81 77 79 87 98 106 110 103 93 88 94 89 82 73 64 56 49
128 135 142 147 149 150 152 155 156 157 154 149 145 142 139 141 145 150 153 156 159 160 156 147 126 88 69 69 77 91 112 121 131 139 145 171 135 107 92 82 72 62 56
150 145 143 144 146 149 153 159 161 163 162 156 151 151 147 147 152 159 168 175 182 189 197 213 231 269 46 53 64 95 138 165 190 209 221 228 223 189 146 125 96 77 70
170 166 156 153 151 152 154 157 162 166 168 166 165 163 164 167 173 180 195 205 213 221 229 246 258 270 304 359 11 64 194 216 221 230 234 238 237 232 216 205 203 189 139
175 174 171 164 160 158 153 157 165 171 176 180 183 182 182 185 194 203 215 229 236 239 245 262 277 276 276 278 287 276 247 235 239 243 242 240 240 241 233 220 220 220 214
176 182 177 171 168 169 164 169 175 179 185 193 198 197 191 193 206 216 222 230 233 236 239 248 257 264 268 269 267 266 260 248 247 248 247 243 243 244 242 231 226 226 224
183 187 183 175 175 176 173 180 187 195 199 204 205 207 205 203 211 220 228 232 234 234 234 238 245 254 261 266 264 258 257 252 249 248 248 247 243 242 243 239 231 229 227
188 188 182 183 184 181 182 189 195 202 208 209 212 215 215 215 217 219 227 231 234 233 233 234 238 243 252 258 262 257 255 254 249 246 246 246 244 241 239 240 237 233 230
186 182 182 187 182 185 193 200 203 207 209 212 220 222 219 220 222 222 225 230 236 237 236 237 243 242 248 249 252 255 252 249 245 243 242 241 242 240 236 237 239 236 233
178 178 185 190 182 191 196 202 206 209 211 220 226 227 225 225 226 223 225 233 237 234 227 226 227 237 243 242 248 250 247 248 246 244 240 237 236 236 235 235 237 237 235
175 173 174 180 179 193 198 199 202 204 211 223 228 231 233 232 230 225 230 235 232 225 223 227 227 222 240 243 246 252 247 242 246 246 240 237 234 232 231 232 234 235 235
115 134 146 148 158 174 173 171 184 200 217 224 226 234 237 236 233 228 233 234 225 221 227 226 234 228 235 245 254 258 251 244 239 236 238 238 235 234 233 232 233 235 234
88 100 109 117 101 113 123 150 177 212 218 221 229 239 243 244 239 229 237 234 220 225 233 228 230 237 242 226 241 268 262 243 241 241 235 233 235 234 232 232 233 233 235
112 100 94 91 81 84 121 140 154 159 187 209 290 297 285 272 259 243 242 242 231 235 240 236 225 232 235 196 205 248 287 290 259 242 234 235 241 239 235 235 234 233 233
117 112 106 91 76 57 58 85 68 56 32 17 4 355 351 342 324 293 274 261 250 237 245 244 231 231 244 226 205 220 250 258 289 281 250 242 245 238 240 239 235 234 234
132 111 99 88 73 54 53 81 114 138 200 336 345 343 350 7 5 355 335 311 289 268 260 259 246 237 239 247 227 227 238 244 259 288 276 267 250 246 248 245 243 240 235
127 113 100 88 70 56 57 72 90 91 75 350 359 1 4 10 17 11 2 350 331 304 288 280 272 254 242 245 236 225 235 241 235 254 273 265 273 252 247 246 251 248 242
119 109 103 93 74 60 63 64 79 88 67 40 17 6 3 3 9 11 6 4 354 340 321 302 286 272 262 255 250 234 226 228 225 234 256 256 256 259 262 259 267 273 264
Height
1537 1540 1544 1547 1550 1552 1554 1555 1556 1556 1556 1556 1556 1556 1556 1557 1557 1558 1558 1558 1558 1558 1558 1558 1559 1559 1560 1561 1561 1562 1562 1562 1562 1562 1562 1562 1562 1562 1561 1561 1561 1561 1561
1536 1540 1544 1547 1550 1553 1554 1556 1556 1557 1557 1557 1557 1557 1558 1558 1559 1560 1560 1560 1560 1559 1559 1559 1560 1561 1561 1562 1563 1563 1564 1564 1564 1564 1564 1563 1564 1564 1564 1564 1563 1563 1563
1537 1540 1544 1548 1551 1553 1555 1556 1557 1558 1558 1558 1558 1559 1559 1560 1561 1562 1562 1562 1561 1561 1561 1561 1561 1562 1563 1564 1564 1565 1565 1565 1565 1565 1565 1565 1565 1566 1566 1566 1566 1566 1565
1538 1541 1545 1548 1551 1554 1555 1557 1558 1558 1559 1560 1560 1560 1561 1562 1563 1564 1564 1564 1564 1563 1563 1563 1563 1564 1565 1565 1566 1567 1567 1567 1567 1567 1567 1567 1567 1568 1568 1568 1568 1568 1567
1539 1542 1545 1549 1552 1554 1556 1557 1558 1559 1560 1561 1561 1562 1563 1564 1565 1565 1566 1566 1566 1566 1565 1565 1566 1566 1567 1567 1568 1568 1569 1569 1569 1569 1569 1569 1569 1570 1570 1570 1570 1570 1569
1539 1543 1546 1549 1552 1555 1557 1558 1559 1560 1561 1562 1563 1564 1565 1565 1566 1567 1567 1568 1568 1568 1568 1568 1568 1568 1569 1569 1570 1570 1570 1571 1571 1571 1571 1571 1571 1572 1572 1571 1571 1571 1571
1540 1543 1547 1550 1553 1555 1557 1559 1560 1561 1562 1563 1564 1565 1566 1567 1567 1568 1569 1569 1569 1569 1570 1570 1570 1570 1570 1571 1571 1572 1572 1572 1572 1573 1573 1573 1573 1573 1573 1573 1572 1571 1571
1541 1544 1548 1551 1553 1556 1558 1560 1561 1562 1563 1564 1565 1566 1567 1568 1569 1569 1570 1570 1571 1571 1571 1571 1571 1572 1572 1572 1573 1573 1573 1574 1574 1574 1574 1574 1574 1574 1573 1573 1572 1572 1571
1542 1545 1548 1551 1553 1556 1558 1560 1562 1563 1564 1565 1566 1567 1567 1568 1569 1570 1571 1571 1572 1572 1572 1573 1573 1573 1573 1573 1574 1574 1574 1574 1575 1575 1575 1575 1575 1574 1574 1573 1572 1571 1570
1543 1546 1549 1551 1553 1556 1558 1560 1561 1563 1564 1565 1566 1567 1568 1569 1569 1570 1571 1571 1572 1573 1573 1573 1574 1574 1574 1574 1574 1574 1575 1575 1575 1575 1575 1575 1575 1574 1574 1573 1572 1571 1570
1543 1546 1549 1551 1553 1555 1558 1559 1561 1563 1564 1565 1566 1567 1568 1569 1569 1570 1571 1571 1572 1573 1573 1574 1574 1574 1574 1574 1574 1574 1575 1575 1575 1575 1575 1575 1575 1574 1573 1573 1572 1570 1569
1543 1545 1548 1550 1553 1555 1557 1559 1561 1562 1563 1565 1566 1567 1567 1568 1569 1569 1570 1571 1571 1572 1573 1573 1574 1574 1574 1574 1574 1574 1574 1574 1574 1575 1575 1574 1574 1574 1573 1572 1571 1570 1569
1543 1545 1547 1550 1552 1554 1556 1558 1560 1561 1563 1564 1565 1566 1567 1567 1568 1569 1570 1570 1571 1571 1572 1572 1573 1573 1573 1573 1573 1573 1573 1573 1573 1573 1573 1573 1573 1573 1572 1571 1570 1570 1569
1542 1544 1547 1549 1551 1554 1556 1558 1559 1560 1562 1563 1564 1565 1566 1567 1567 1568 1569 1569 1570 1570 1570 1571 1571 1571 1572 1572 1571 1571 1571 1571 1571 1571 1572 1572 1572 1571 1571 1570 1569 1569 1568
1542 1544 1546 1548 1551 1553 1555 1556 1558 1559 1561 1562 1563 1564 1564 1565 1566 1567 1567 1568 1568 1569 1569 1569 1569 1569 1569 1569 1569 1569 1569 1569 1569 1569 1569 1569 1569 1569 1569 1569 1568 1567 1566
1541 1543 1545 1547 1550 1552 1553 1555 1557 1558 1559 1560 1561 1562 1563 1564 1565 1565 1566 1566 1567 1567 1567 1567 1567 1567 1567 1567 1567 1567 1567 1567 1566 1566 1566 1566 1566 1566 1566 1566 1566 1565 1565
1540 1542 1544 1546 1548 1550 1552 1554 1555 1556 1558 1558 1560 1560 1561 1562 1563 1563 1563 1564 1564 1565 1565 1564 1564 1564 1564 1564 1564 1564 1564 1564 1563 1563 1563 1563 1563 1563 1563 1563 1563 1563 1562
1539 1541 1543 1545 1547 1548 1550 1552 1553 1554 1555 1556 1557 1558 1559 1559 1560 1560 1560 1561 1561 1561 1561 1561 1561 1560 1560 1560 1560 1560 1560 1560 1559 1559 1559 1559 1559 1559 1559 1559 1559 1559 1559
1537 1539 1541 1543 1545 1546 1548 1549 1551 1552 1552 1553 1554 1555 1556 1556 1557 1557 1557 1557 1558 1557 1557 1557 1557 1557 1556 1556 1556 1555 1555 1555 1555 1555 1554 1554 1554 1554 1554 1555 1555 1555 1555
1535 1537 1539 1541 1542 1544 1546 1547 1548 1548 1549 1550 1551 1551 1552 1552 1553 1553 1553 1553 1553 1553 1553 1552 1552 1552 1551 1551 1550 1549 1549 1549 1549 1548 1549 1549 1549 1549 1549 1549 1550 1550 1550
1533 1535 1537 1538 1540 1541 1543 1544 1545 1545 1546 1547 1547 1548 1548 1548 1548 1548 1548 1548 1548 1548 1548 1548 1547 1547 1546 1546 1545 1543 1542 1542 1541 1542 1542 1542 1542 1543 1543 1543 1543 1544 1544
1530 1532 1534 1535 1537 1538 1540 1541 1541 1542 1543 1543 1543 1543 1543 1543 1544 1543 1543 1543 1543 1543 1543 1543 1542 1541 1541 1541 1540 1538 1536 1535 1534 1535 1535 1536 1536 1536 1536 1537 1537 1537 1538
1527 1529 1530 1532 1533 1535 1536 1537 1538 1538 1538 1539 1539 1539 1539 1539 1538 1538 1538 1538 1538 1537 1537 1537 1537 1536 1535 1535 1535 1535 1532 1529 1529 1529 1529 1530 1530 1530 1530 1530 1530 1531 1531
1524 1526 1527 1529 1530 1531 1532 1533 1533 1533 1534 1534 1534 1534 1534 1533 1533 1533 1532 1532 1532 1531 1531 1531 1531 1530 1530 1529 1529 1529 1529 1527 1526 1523 1523 1525 1525 1525 1525 1524 1524 1524 1524
1521 1522 1524 1525 1526 1527 1528 1528 1528 1529 1529 1529 1529 1529 1529 1528 1527 1527 1526 1526 1526 1525 1525 1525 1525 1524 1524 1523 1523 1523 1523 1522 1521 1520 1517 1518 1519 1519 1519 1519 1518 1517 1517
1517 1519 1521 1522 1523 1523 1524 1524 1524 1525 1525 1524 1524 1524 1523 1523 1522 1521 1521 1520 1520 1519 1519 1519 1518 1518 1518 1518 1517 1517 1517 1516 1516 1515 1512 1511 1512 1513 1513 1513 1512 1511 1510